Year,Month,Day,Hour,Minute,Value (Times are PST for temperature in C)
2021,01,16,10,37,6.40
2021,01,16,10,38,6.40
2021,01,16,10,39,6.40
2021,01,16,10,40,6.40
2021,01,16,10,41,6.40
2021,01,16,10,42,6.40
2021,01,16,10,43,6.40
2021,01,16,10,44,6.40
2021,01,16,10,45,6.40
2021,01,16,10,46,6.40
2021,01,16,10,47,6.40
2021,01,16,10,48,6.40
2021,01,16,10,49,6.40
2021,01,16,10,50,6.50
2021,01,16,10,51,6.60
2021,01,16,10,52,6.60
2021,01,16,10,53,6.60
2021,01,16,10,54,6.60
2021,01,16,10,55,6.60
2021,01,16,10,56,6.60
2021,01,16,10,57,6.60
2021,01,16,10,58,6.70
2021,01,16,10,59,6.70
2021,01,16,11,00,6.70
2021,01,16,11,01,6.70
2021,01,16,11,02,6.70
2021,01,16,11,03,6.70
2021,01,16,11,04,6.70
2021,01,16,11,05,6.70
2021,01,16,11,06,6.70
2021,01,16,11,07,6.70
2021,01,16,11,08,6.70
2021,01,16,11,09,6.80
2021,01,16,11,10,6.80
2021,01,16,11,11,6.80
2021,01,16,11,12,6.80
2021,01,16,11,13,6.80
2021,01,16,11,14,6.80
2021,01,16,11,15,6.80
2021,01,16,11,16,6.80
2021,01,16,11,17,6.80
2021,01,16,11,18,6.80
2021,01,16,11,19,6.80
2021,01,16,11,20,6.80
2021,01,16,11,21,6.80
2021,01,16,11,22,6.80
2021,01,16,11,23,6.80
2021,01,16,11,24,6.80
2021,01,16,11,25,6.90
2021,01,16,11,26,6.90
2021,01,16,11,27,6.90
2021,01,16,11,28,6.90
2021,01,16,11,29,6.90
2021,01,16,11,30,7.00
2021,01,16,11,31,7.00
2021,01,16,11,32,6.90
2021,01,16,11,33,6.90
2021,01,16,11,34,6.90
2021,01,16,11,35,7.00
2021,01,16,11,36,7.00
2021,01,16,11,37,7.00
2021,01,16,11,38,7.00
2021,01,16,11,39,7.00
2021,01,16,11,40,7.00
2021,01,16,11,41,7.00
2021,01,16,11,42,7.00
2021,01,16,11,43,7.00
2021,01,16,11,44,7.00
2021,01,16,11,45,7.10
2021,01,16,11,46,7.10
2021,01,16,11,47,7.10
2021,01,16,11,48,7.10
2021,01,16,11,49,7.10
2021,01,16,11,50,7.10
2021,01,16,11,51,7.10
2021,01,16,11,52,7.20
2021,01,16,11,53,7.20
2021,01,16,11,54,7.20
2021,01,16,11,55,7.20
2021,01,16,11,56,7.20
2021,01,16,11,57,7.20
2021,01,16,11,58,7.30
2021,01,16,11,59,7.30
2021,01,16,12,00,7.30
2021,01,16,12,01,7.30
2021,01,16,12,02,7.30
2021,01,16,12,03,7.30
2021,01,16,12,04,7.30
2021,01,16,12,05,7.30
2021,01,16,12,06,7.30
2021,01,16,12,07,7.30
2021,01,16,12,08,7.30
2021,01,16,12,09,7.30
2021,01,16,12,10,7.30
2021,01,16,12,11,7.30
2021,01,16,12,12,7.40
2021,01,16,12,13,7.40
2021,01,16,12,14,7.40
2021,01,16,12,15,7.50
2021,01,16,12,16,7.50
2021,01,16,12,17,7.50
2021,01,16,12,18,7.60
2021,01,16,12,19,7.60
2021,01,16,12,20,7.60
2021,01,16,12,21,7.60
2021,01,16,12,22,7.60
2021,01,16,12,23,7.60
2021,01,16,12,24,7.50
2021,01,16,12,25,7.50
2021,01,16,12,26,7.50
2021,01,16,12,27,7.40
2021,01,16,12,28,7.40
2021,01,16,12,29,7.40
2021,01,16,12,30,7.40
2021,01,16,12,31,7.50
2021,01,16,12,32,7.50
2021,01,16,12,33,7.50
2021,01,16,12,34,7.50
2021,01,16,12,35,7.50
2021,01,16,12,36,7.50
2021,01,16,12,37,7.60
2021,01,16,12,38,7.60
2021,01,16,12,39,7.70
2021,01,16,12,40,7.70
2021,01,16,12,41,7.70
2021,01,16,12,42,7.70
2021,01,16,12,43,7.70
2021,01,16,12,44,7.70
2021,01,16,12,45,7.70
2021,01,16,12,46,7.80
2021,01,16,12,47,7.80
2021,01,16,12,48,7.80
2021,01,16,12,49,7.80
2021,01,16,12,50,7.80
2021,01,16,12,51,7.80
2021,01,16,12,52,7.80
2021,01,16,12,53,7.80
2021,01,16,12,54,7.90
2021,01,16,12,55,7.90
2021,01,16,12,56,7.90
2021,01,16,12,57,7.80
2021,01,16,12,58,7.80
2021,01,16,12,59,7.80
2021,01,16,13,00,7.80
2021,01,16,13,01,7.80
2021,01,16,13,02,7.80
2021,01,16,13,03,7.80
2021,01,16,13,04,7.90
2021,01,16,13,05,7.90
2021,01,16,13,06,7.90
2021,01,16,13,07,7.90
2021,01,16,13,08,7.90
2021,01,16,13,09,7.90
2021,01,16,13,10,8.00
2021,01,16,13,11,8.00
2021,01,16,13,12,8.00
2021,01,16,13,13,8.00
2021,01,16,13,14,8.10
2021,01,16,13,15,8.10
2021,01,16,13,16,8.10
2021,01,16,13,17,8.10
2021,01,16,13,18,8.10
2021,01,16,13,19,8.10
2021,01,16,13,20,8.20
2021,01,16,13,21,8.20
2021,01,16,13,22,8.20
2021,01,16,13,23,8.10
2021,01,16,13,24,8.10
2021,01,16,13,25,8.10
2021,01,16,13,26,8.10
2021,01,16,13,27,8.10
2021,01,16,13,28,8.10
2021,01,16,13,29,8.10
2021,01,16,13,30,8.10
2021,01,16,13,31,8.10
2021,01,16,13,32,8.10
2021,01,16,13,33,8.10
2021,01,16,13,34,8.20
2021,01,16,13,35,8.20
2021,01,16,13,36,8.20
2021,01,16,13,37,8.20
2021,01,16,13,38,8.20
2021,01,16,13,39,8.20
2021,01,16,13,40,8.20
2021,01,16,13,41,8.20
2021,01,16,13,42,8.20
2021,01,16,13,43,8.20
2021,01,16,13,44,8.20
2021,01,16,13,45,8.20
2021,01,16,13,46,8.20
2021,01,16,13,47,8.20
2021,01,16,13,48,8.20
2021,01,16,13,49,8.20
2021,01,16,13,50,8.20
2021,01,16,13,51,8.20
2021,01,16,13,52,8.20
2021,01,16,13,53,8.20
2021,01,16,13,54,8.20
2021,01,16,13,55,8.20
2021,01,16,13,56,8.20
2021,01,16,13,57,8.20
2021,01,16,13,58,8.20
2021,01,16,13,59,8.20
2021,01,16,14,00,8.10
2021,01,16,14,01,8.10
2021,01,16,14,02,8.10
2021,01,16,14,03,8.00
2021,01,16,14,04,8.00
2021,01,16,14,05,8.00
2021,01,16,14,06,8.00
2021,01,16,14,07,8.00
2021,01,16,14,08,8.10
2021,01,16,14,09,8.10
2021,01,16,14,10,8.10
2021,01,16,14,11,8.10
2021,01,16,14,12,8.10
2021,01,16,14,13,8.10
2021,01,16,14,14,8.10
2021,01,16,14,15,8.10
2021,01,16,14,16,8.10
2021,01,16,14,17,8.10
2021,01,16,14,18,8.10
2021,01,16,14,19,8.10
2021,01,16,14,20,8.10
2021,01,16,14,21,8.10
2021,01,16,14,22,8.10
2021,01,16,14,23,8.10
2021,01,16,14,24,8.10
2021,01,16,14,25,8.10
2021,01,16,14,26,8.10
2021,01,16,14,27,8.10
2021,01,16,14,28,8.10
2021,01,16,14,29,8.10
2021,01,16,14,30,8.10
2021,01,16,14,31,8.10
2021,01,16,14,32,8.10
2021,01,16,14,33,8.10
2021,01,16,14,34,8.10
2021,01,16,14,35,8.10
2021,01,16,14,36,8.10
2021,01,16,14,37,8.10
2021,01,16,14,38,8.10
2021,01,16,14,39,8.10
2021,01,16,14,40,8.10
2021,01,16,14,41,8.10
2021,01,16,14,42,8.10
2021,01,16,14,43,8.00
2021,01,16,14,44,8.00
2021,01,16,14,45,8.00
2021,01,16,14,46,7.90
2021,01,16,14,47,7.90
2021,01,16,14,48,7.90
2021,01,16,14,49,7.90
2021,01,16,14,50,7.90
2021,01,16,14,51,7.90
2021,01,16,14,52,7.90
2021,01,16,14,53,7.90
2021,01,16,14,54,7.90
2021,01,16,14,55,8.00
2021,01,16,14,56,8.00
2021,01,16,14,57,8.00
2021,01,16,14,58,8.00
2021,01,16,14,59,8.00
2021,01,16,15,00,8.00
2021,01,16,15,01,8.00
2021,01,16,15,02,8.00
2021,01,16,15,03,8.00
2021,01,16,15,04,8.00
2021,01,16,15,05,8.00
2021,01,16,15,06,8.00
2021,01,16,15,07,8.00
2021,01,16,15,08,8.00
2021,01,16,15,09,8.00
2021,01,16,15,10,8.00
2021,01,16,15,11,8.00
2021,01,16,15,12,8.00
2021,01,16,15,13,8.00
2021,01,16,15,14,8.00
2021,01,16,15,15,8.00
2021,01,16,15,16,8.00
2021,01,16,15,17,8.00
2021,01,16,15,18,7.90
2021,01,16,15,19,8.00
2021,01,16,15,20,8.00
2021,01,16,15,21,8.00
2021,01,16,15,22,7.90
2021,01,16,15,23,7.90
2021,01,16,15,24,7.90
2021,01,16,15,25,7.90
2021,01,16,15,26,7.90
2021,01,16,15,27,7.90
2021,01,16,15,28,7.90
2021,01,16,15,29,8.00
2021,01,16,15,30,8.00
2021,01,16,15,31,8.00
2021,01,16,15,32,8.00
2021,01,16,15,33,8.00
2021,01,16,15,34,8.00
2021,01,16,15,35,8.00
2021,01,16,15,36,8.00
2021,01,16,15,37,8.00
2021,01,16,15,38,8.00
2021,01,16,15,39,8.00
2021,01,16,15,40,8.00
2021,01,16,15,41,8.00
2021,01,16,16,50,6.70
2021,01,16,16,51,6.70
2021,01,16,16,52,6.70
2021,01,16,16,53,6.70
2021,01,16,16,54,6.70
2021,01,16,16,55,6.70
2021,01,16,16,56,6.70
2021,01,16,16,57,6.70
2021,01,16,16,58,6.70
2021,01,16,16,59,6.60
2021,01,16,17,00,6.60
2021,01,16,17,01,6.60
2021,01,16,17,02,6.60
2021,01,16,17,03,6.60
2021,01,16,17,04,6.60
2021,01,16,17,05,6.60
2021,01,16,17,06,6.60
2021,01,16,17,07,6.60
2021,01,16,17,08,6.60
2021,01,16,17,09,6.60
2021,01,16,17,10,6.60
2021,01,16,17,11,6.50
2021,01,16,17,12,6.50
2021,01,16,17,13,6.50
2021,01,16,17,14,6.50
2021,01,16,17,15,6.50
2021,01,16,17,16,6.40
2021,01,16,17,17,6.40
2021,01,16,17,18,6.40
2021,01,16,17,19,6.40
2021,01,16,17,20,6.40
2021,01,16,17,21,6.40
2021,01,16,17,22,6.40
2021,01,16,17,23,6.40
2021,01,16,17,24,6.40
2021,01,16,17,25,6.40
2021,01,16,17,26,6.40
2021,01,16,17,27,6.40
2021,01,16,17,28,6.40
2021,01,16,17,29,6.40
2021,01,16,17,30,6.40
2021,01,16,17,31,6.40
2021,01,16,17,32,6.50
2021,01,16,17,33,6.50
2021,01,16,17,34,6.50
2021,01,16,17,35,6.40
2021,01,16,17,36,6.40
2021,01,16,17,37,6.50
2021,01,16,17,38,6.40
2021,01,16,17,39,6.40
2021,01,16,17,40,6.50
2021,01,16,17,41,6.50
2021,01,16,17,42,6.50
2021,01,16,17,43,6.50
2021,01,16,17,44,6.50
2021,01,16,17,45,6.50
2021,01,16,17,46,6.50
2021,01,16,17,47,6.50
2021,01,16,17,48,6.50
2021,01,16,17,49,6.50
2021,01,16,17,50,6.50
2021,01,16,17,51,6.50
2021,01,16,17,52,6.50
2021,01,16,17,53,6.60
2021,01,16,17,54,6.60
2021,01,16,17,55,6.60
2021,01,16,17,56,6.60
2021,01,16,17,57,6.60
2021,01,16,17,58,6.60
2021,01,16,17,59,6.60
2021,01,16,18,00,6.60
2021,01,16,18,01,6.60
2021,01,16,18,02,6.60
2021,01,16,18,03,6.60
2021,01,16,18,04,6.60
2021,01,16,18,05,6.60
2021,01,16,18,06,6.60
2021,01,16,18,07,6.60
2021,01,16,18,08,6.60
2021,01,16,18,09,6.60
2021,01,16,18,10,6.60
2021,01,16,18,11,6.60
2021,01,16,18,12,6.60
2021,01,16,18,13,6.60
2021,01,16,18,14,6.60
2021,01,16,18,15,6.70
2021,01,16,18,16,6.60
2021,01,16,18,17,6.60
2021,01,16,18,18,6.60
2021,01,16,18,19,6.60
2021,01,16,18,20,6.60
2021,01,16,18,21,6.60
2021,01,16,18,22,6.60
2021,01,16,18,23,6.60
2021,01,16,18,24,6.60
2021,01,16,18,25,6.60
2021,01,16,18,26,6.60
2021,01,16,18,27,6.60
2021,01,16,18,28,6.60
2021,01,16,18,29,6.60
2021,01,16,18,30,6.60
2021,01,16,18,31,6.60
2021,01,16,18,32,6.60
2021,01,16,18,33,6.60
2021,01,16,18,34,6.60
2021,01,16,18,35,6.60
2021,01,16,18,36,6.60
2021,01,16,18,37,6.60
2021,01,16,18,38,6.60
2021,01,16,18,39,6.60
2021,01,16,18,40,6.60
2021,01,16,18,41,6.60
2021,01,16,18,42,6.60
2021,01,16,18,43,6.60
2021,01,16,18,44,6.60
2021,01,16,18,45,6.60
2021,01,16,18,46,6.60
2021,01,16,18,47,6.60
2021,01,16,18,48,6.60
2021,01,16,18,49,6.60
2021,01,16,18,50,6.60
2021,01,16,18,51,6.60
2021,01,16,18,52,6.60
2021,01,16,18,53,6.60
2021,01,16,18,54,6.60
2021,01,16,18,55,6.60
2021,01,16,18,56,6.60
2021,01,16,18,57,6.60
2021,01,16,18,58,6.60
2021,01,16,18,59,6.60
2021,01,16,19,00,6.60
2021,01,16,19,01,6.60
2021,01,16,19,02,6.60
2021,01,16,19,03,6.60
2021,01,16,19,04,6.60
2021,01,16,19,05,6.60
2021,01,16,19,06,6.60
2021,01,16,19,07,6.60
2021,01,16,19,08,6.60
2021,01,16,19,09,6.60
2021,01,16,19,10,6.60
2021,01,16,19,11,6.50
2021,01,16,19,12,6.50
2021,01,16,19,13,6.50
2021,01,16,19,14,6.50
2021,01,16,19,15,6.50
2021,01,16,19,16,6.50
2021,01,16,19,17,6.50
2021,01,16,19,18,6.50
2021,01,16,19,19,6.50
2021,01,16,19,20,6.50
2021,01,16,19,21,6.50
2021,01,16,19,22,6.50
2021,01,16,19,23,6.50
2021,01,16,19,24,6.50
2021,01,16,19,25,6.50
2021,01,16,19,26,6.50
2021,01,16,19,27,6.50
2021,01,16,19,28,6.50
2021,01,16,19,29,6.50
2021,01,16,19,30,6.50
2021,01,16,19,31,6.50
2021,01,16,19,32,6.50
2021,01,16,19,33,6.50
2021,01,16,19,34,6.60
2021,01,16,19,35,6.50
2021,01,16,19,36,6.50
2021,01,16,19,37,6.50
2021,01,16,19,38,6.50
2021,01,16,19,39,6.50
2021,01,16,19,40,6.50
2021,01,16,19,41,6.50
2021,01,16,19,42,6.50
2021,01,16,19,43,6.50
2021,01,16,19,44,6.50
2021,01,16,19,45,6.50
2021,01,16,19,46,6.50
2021,01,16,19,47,6.50
2021,01,16,19,48,6.50
2021,01,16,19,49,6.50
2021,01,16,19,50,6.50
2021,01,16,19,51,6.50
2021,01,16,19,52,6.50
2021,01,16,19,53,6.50
2021,01,16,19,54,6.50
2021,01,16,19,55,6.50
2021,01,16,19,56,6.50
2021,01,16,19,57,6.50
2021,01,16,19,58,6.50
2021,01,16,19,59,6.50
2021,01,16,20,00,6.40
2021,01,16,20,01,6.50
2021,01,16,20,02,6.40
2021,01,16,20,03,6.50
2021,01,16,20,04,6.50
2021,01,16,20,05,6.50
2021,01,16,20,06,6.50
2021,01,16,20,07,6.50
2021,01,16,20,08,6.50
2021,01,16,20,09,6.50
2021,01,16,20,10,6.50
2021,01,16,20,11,6.50
2021,01,16,20,12,6.50
2021,01,16,20,13,6.50
2021,01,16,20,14,6.50
2021,01,16,20,15,6.50
2021,01,16,20,16,6.50
2021,01,16,20,17,6.50
2021,01,16,20,18,6.50
2021,01,16,20,19,6.50
2021,01,16,20,20,6.50
2021,01,16,20,21,6.40
2021,01,16,20,22,6.50
2021,01,16,20,23,6.50
2021,01,16,20,24,6.40
2021,01,16,20,25,6.50
2021,01,16,20,26,6.50
2021,01,16,20,27,6.50
2021,01,16,20,28,6.40
2021,01,16,20,29,6.40
2021,01,16,20,30,6.40
2021,01,16,20,31,6.50
2021,01,16,20,32,6.50
2021,01,16,20,33,6.50
2021,01,16,20,34,6.50
2021,01,16,20,35,6.50
2021,01,16,20,36,6.50
2021,01,16,20,37,6.50
2021,01,16,20,38,6.50
2021,01,16,20,39,6.60
2021,01,16,20,40,6.60
2021,01,16,20,41,6.60
2021,01,16,20,42,6.60
2021,01,16,20,43,6.60
2021,01,16,20,44,6.60
2021,01,16,20,45,6.60
2021,01,16,20,46,6.50
2021,01,16,20,47,6.50
2021,01,16,20,48,6.60
2021,01,16,20,49,6.60
2021,01,16,20,50,6.60
2021,01,16,20,51,6.60
2021,01,16,20,52,6.60
2021,01,16,20,53,6.60
2021,01,16,20,54,6.60
2021,01,16,20,55,6.60
2021,01,16,20,56,6.60
2021,01,16,20,57,6.60
2021,01,16,20,58,6.60
2021,01,16,20,59,6.60
2021,01,16,21,00,6.60
2021,01,16,21,01,6.60
2021,01,16,21,02,6.60
2021,01,16,21,03,6.60
2021,01,16,21,04,6.60
2021,01,16,21,05,6.70
2021,01,16,21,06,6.70
2021,01,16,21,07,6.70
2021,01,16,21,08,6.70
2021,01,16,21,09,6.70
2021,01,16,21,10,6.70
2021,01,16,21,11,6.60
2021,01,16,21,12,6.60
2021,01,16,21,13,6.60
2021,01,16,21,14,6.60
2021,01,16,21,15,6.60
2021,01,16,21,16,6.60
2021,01,16,21,17,6.60
2021,01,16,21,18,6.50
2021,01,16,21,19,6.50
2021,01,16,21,20,6.50
2021,01,16,21,21,6.40
2021,01,16,21,22,6.40
2021,01,16,21,23,6.40
2021,01,16,21,24,6.40
2021,01,16,21,25,6.40
2021,01,16,21,26,6.40
2021,01,16,21,27,6.30
2021,01,16,21,28,6.30
2021,01,16,21,29,6.30
2021,01,16,21,30,6.30
2021,01,16,21,31,6.30
2021,01,16,21,32,6.30
2021,01,16,21,33,6.30
2021,01,16,21,34,6.30
2021,01,16,21,35,6.30
2021,01,16,21,36,6.30
2021,01,16,21,37,6.30
2021,01,16,21,38,6.30
2021,01,16,21,39,6.30
2021,01,16,21,40,6.30
2021,01,16,21,41,6.30
2021,01,16,21,42,6.30
2021,01,16,21,43,6.30
2021,01,16,21,44,6.30
2021,01,16,21,45,6.30
2021,01,16,21,46,6.30
2021,01,16,21,47,6.30
2021,01,16,21,48,6.30
2021,01,16,21,49,6.30
2021,01,16,21,50,6.30
2021,01,16,21,51,6.30
2021,01,16,21,52,6.30
2021,01,16,21,53,6.30
2021,01,16,21,54,6.30
2021,01,16,21,55,6.30
2021,01,16,21,56,6.30
2021,01,16,21,57,6.30
2021,01,16,21,58,6.30
2021,01,16,21,59,6.30
2021,01,16,22,00,6.30
2021,01,16,22,01,6.30
2021,01,16,22,02,6.30
2021,01,16,22,03,6.30
2021,01,16,22,04,6.30
2021,01,16,22,05,6.30
2021,01,16,22,06,6.30
2021,01,16,22,07,6.30
2021,01,16,22,08,6.30
2021,01,16,22,09,6.30
2021,01,16,22,10,6.30
2021,01,16,22,11,6.30
2021,01,16,22,12,6.30
2021,01,16,22,13,6.30
2021,01,16,22,14,6.30
2021,01,16,22,15,6.30
2021,01,16,22,16,6.30
2021,01,16,22,17,6.30
2021,01,16,22,18,6.30
2021,01,16,22,19,6.30
2021,01,16,22,20,6.30
2021,01,16,22,21,6.30
2021,01,16,22,22,6.30
2021,01,16,22,23,6.30
2021,01,16,22,24,6.30
2021,01,16,22,25,6.30
2021,01,16,22,26,6.30
2021,01,16,22,27,6.30
2021,01,16,22,28,6.30
2021,01,16,22,29,6.30
2021,01,16,22,30,6.30
2021,01,16,22,31,6.30
2021,01,16,22,32,6.30
2021,01,16,22,33,6.30
2021,01,16,22,34,6.30
2021,01,16,22,35,6.30
2021,01,16,22,36,6.30
2021,01,16,22,37,6.30
2021,01,16,22,38,6.30
2021,01,16,22,39,6.30
2021,01,16,22,40,6.30
2021,01,16,22,41,6.30
2021,01,16,22,42,6.30
2021,01,16,22,43,6.30
2021,01,16,22,44,6.30
2021,01,16,22,45,6.30
2021,01,16,22,46,6.30
2021,01,16,22,47,6.30
2021,01,16,22,48,6.30
2021,01,16,22,49,6.30
2021,01,16,22,50,6.30
2021,01,16,22,51,6.30
2021,01,16,22,52,6.40
2021,01,16,22,53,6.40
2021,01,16,22,54,6.40
2021,01,16,22,55,6.40
2021,01,16,22,56,6.40
2021,01,16,22,57,6.40
2021,01,16,22,58,6.40
2021,01,16,22,59,6.40
2021,01,16,23,00,6.40
2021,01,16,23,01,6.40
2021,01,16,23,02,6.40
2021,01,16,23,03,6.40
2021,01,16,23,04,6.40
2021,01,16,23,05,6.40
2021,01,16,23,06,6.40
2021,01,16,23,07,6.40
2021,01,16,23,08,6.40
2021,01,16,23,09,6.40
2021,01,16,23,10,6.30
2021,01,16,23,11,6.30
2021,01,16,23,12,6.30
2021,01,16,23,13,6.30
2021,01,16,23,14,6.30
2021,01,16,23,15,6.30
2021,01,16,23,16,6.30
2021,01,16,23,17,6.30
2021,01,16,23,18,6.30
2021,01,16,23,19,6.30
2021,01,16,23,20,6.30
2021,01,16,23,21,6.30
2021,01,16,23,22,6.30
2021,01,16,23,23,6.30
2021,01,16,23,24,6.30
2021,01,16,23,25,6.30
2021,01,16,23,26,6.30
2021,01,16,23,27,6.30
2021,01,16,23,28,6.30
2021,01,16,23,29,6.30
2021,01,16,23,30,6.30
2021,01,16,23,31,6.30
2021,01,16,23,32,6.30
2021,01,16,23,33,6.30
2021,01,16,23,34,6.30
2021,01,16,23,35,6.20
2021,01,16,23,36,6.30
2021,01,16,23,37,6.30
2021,01,16,23,38,6.30
2021,01,16,23,39,6.30
2021,01,16,23,40,6.30
2021,01,16,23,41,6.30
2021,01,16,23,42,6.30
2021,01,16,23,43,6.30
2021,01,16,23,44,6.30
2021,01,16,23,45,6.30
2021,01,16,23,46,6.30
2021,01,16,23,47,6.30
2021,01,16,23,48,6.30
2021,01,16,23,49,6.30
2021,01,16,23,50,6.20
2021,01,16,23,51,6.20
2021,01,16,23,52,6.20
2021,01,16,23,53,6.20
2021,01,16,23,54,6.20
2021,01,16,23,55,6.20
2021,01,16,23,56,6.10
2021,01,16,23,57,6.10
2021,01,16,23,58,6.10
2021,01,16,23,59,6.10
